Terug naar catalogus

STARLINK-32108

ActiefCommunicatieVLEO
NORAD 59682·PAYLOAD·🇺🇸 United States

Gelanceerd May 8, 2024 vanaf Cape Canaveral Space Force Station

Loading…

Volgende Passages (komende 24 uur)

TLE

VersSource: CelesTrak SupGP

Epoch: Sep 15, 2026, 02:33 UTC

1 59682C 24086A   26258.10673611 -.00013060  00000+0 -47306-3 0  2580
2 59682  43.0031  73.7772 0001548 272.1743 277.1119 15.27583048    12

Volg STARLINK-32108 in realtime met AllMySat

Download on the App Store